Location: Baix
(44.7118°N, 4.7648°E)
Time: 15:32:21
(UTC+00:00)

Vanguard 3 - All Passes

Search period start: 26 November 2020 00:00
Search period end: 06 December 2020 00:00
Orbit: 508 x 3262 km, 33.3° (Epoch: 25 November)

Date Brightness Start Highest point End Pass type
(mag) Time Alt. Az. Time Alt. Az. Time Alt. Az.
26 Nov - 01:55:20 10° WSW 02:00:53 23° SSW 02:09:03 10° SSE visible
26 Nov - 04:10:55 10° SW 04:13:32 11° SSW 04:16:27 10° SSW visible
26 Nov - 22:31:56 10° SW 22:35:29 24° S 22:40:22 10° ESE night (unlit)
27 Nov - 00:41:57 10° WSW 00:46:41 25° S 00:53:46 10° SE visible
27 Nov - 02:54:19 10° SW 02:58:50 15° SSW 03:04:38 10° S visible
27 Nov - 21:19:32 10° SSW 21:22:05 17° SSE 21:25:06 10° ESE night (unlit)
27 Nov - 23:28:54 10° SW 23:32:50 25° S 23:38:29 10° SE night (unlit)
28 Nov - 01:39:58 10° WSW 01:44:27 18° SSW 01:50:36 10° SSE visible
28 Nov - 22:16:04 10° SW 22:19:15 21° S 22:23:24 10° SE night (unlit)
29 Nov - 00:26:24 10° SW 00:30:23 20° S 00:35:56 10° SE night (unlit)
29 Nov - 02:41:03 10° SSW 02:42:22 10° SSW 02:43:45 10° SSW visible
29 Nov - 21:03:26 10° SSW 21:05:51 16° SSE 21:08:35 10° SE night (unlit)
29 Nov - 23:13:13 10° SW 23:16:36 20° S 23:21:08 10° SE night (unlit)
30 Nov - 01:25:05 10° SW 01:28:06 13° SSW 01:31:47 10° S night (unlit)
30 Nov - 19:51:21 10° S 19:52:28 11° SSE 19:53:35 10° SE night (unlit)
30 Nov - 22:00:13 10° SW 22:03:03 19° S 22:06:31 10° SE night (unlit)
01 Dec - 00:11:05 10° SW 00:14:07 15° S 00:17:57 10° SSE night (unlit)
01 Dec - 20:47:18 10° SSW 20:49:38 16° S 20:52:09 10° SE night (unlit)
01 Dec - 22:57:39 10° SW 23:00:24 16° S 23:03:48 10° SSE night (unlit)
02 Dec - 19:34:29 10° SSW 19:36:14 13° S 19:37:55 10° SE visible
02 Dec - 21:44:23 10° SW 21:46:52 17° S 21:49:41 10° SE night (unlit)
02 Dec - 23:56:28 10° SSW 23:57:53 11° SSW 23:59:25 10° S night (unlit)
03 Dec - 20:31:07 10° SW 20:33:26 16° S 20:35:49 10° SE night (unlit)
03 Dec - 22:42:17 10° SW 22:44:11 13° S 22:46:19 10° SSE night (unlit)
04 Dec - 19:17:42 10° SSW 19:20:00 15° S 19:22:08 10° SE visible
04 Dec - 21:28:34 10° SW 21:30:40 14° S 21:32:54 10° SSE night (unlit)
05 Dec - 18:04:11 10° SSW 18:06:29 13° S 18:08:30 10° SE visible
05 Dec - 20:14:51 10° SW 20:17:14 16° S 20:19:34 10° SE visible
